Location: Star Dogged Moon Observatory
(29.7756°N, 82.0783°W)
Time: 23:56:02
(UTC-04:00)

ARGOS - Visible Passes

Search period start: 27 April 2015 00:00
Search period end: 07 May 2015 00:00
Orbit: 821 x 834 km, 98.7° (Epoch: 26 April)

Date Brightness Start Highest point End Pass type
(mag) Time Alt. Az. Time Alt. Az. Time Alt. Az.
27 Apr 4.9 22:06:34 18° NE 22:06:34 18° NE 22:09:03 10° NNE visible
27 Apr 5.3 23:48:05 22° NW 23:48:05 22° NW 23:50:10 10° NNW visible
28 Apr 5.2 21:47:46 13° NE 21:47:46 13° NE 21:49:19 10° NE visible
28 Apr 4.8 23:29:17 30° NNW 23:29:17 30° NNW 23:31:58 10° NNW visible
29 Apr 4.5 23:10:29 36° N 23:10:29 36° N 23:13:34 10° NNW visible
30 Apr 4.3 22:51:41 36° NNE 22:51:41 36° NNE 22:54:59 10° N visible
01 May 4.4 22:32:53 30° NE 22:32:53 30° NE 22:36:13 10° N visible
02 May 5.7 00:14:25 15° WNW 00:14:25 15° WNW 00:15:37 10° NW visible
02 May 4.7 22:14:06 22° NE 22:14:06 22° NE 22:17:13 10° NNE visible
02 May 5.3 23:55:37 22° NW 23:55:37 22° NW 23:57:50 10° NW visible
03 May 5.0 21:55:18 15° ENE 21:55:18 15° ENE 21:57:50 10° NNE visible
03 May 4.8 23:36:49 30° NW 23:36:49 30° NW 23:39:43 10° NNW visible
04 May 4.3 23:18:01 39° NNW 23:18:01 39° NNW 23:21:24 10° NNW visible
05 May 4.0 22:59:14 43° N 22:59:14 43° N 23:02:54 10° N visible
06 May 4.1 22:40:26 36° NE 22:40:26 36° NE 22:44:12 10° N visible
